This demonstration page uses our WeatherBlox Daily Observations layout. Learn more.

41.55636, -103.73856

Hourly Observations for October 3, 2019

Temp ( °F °C ) Dew Point ( °F °C ) Humidity (%) Winds ( mph kmh ) Pressure ( in mb ) Visibility ( mi km ) Precip ( " mm )
12:58 am 00:58 Mostly Cloudy 48 8.9 39 3.7 70 70 WNW 7 11 30.18 1022 10 16.0934 0 0
1:58 am 01:58 Clear 43 5.9 37 2.9 81 81 SSW 5 7 30.21 1023 10 16.0934 0 0
2:58 am 02:58 Clear 41 5 36 2.3 83 83 NNE 6 9 30.27 1025 10 16.0934 0 0
3:58 am 03:58 Clear 41 5.2 29 -1.4 63 63 NNW 3 6 30.27 1025 10 16.0934 0 0
4:58 am 04:58 Clear 38 3.2 30 -1.3 73 73 WSW 3 6 30.29 1026 10 16.0934 0 0
5:58 am 05:58 Clear 34 1.2 28 -2.1 79 79 SSW 5 7 30.3 1026 10 16.0934 0 0
6:58 am 06:58 Clear 34 1.3 28 -2 79 79 WSW 3 6 30.3 1026 10 16.0934 0 0
7:58 am 07:58 Clear 35 1.7 28 -2 77 77 WNW 5 7 30.28 1025 10 16.0934 0 0
8:58 am 08:58 Clear 34 0.9 29 -1.9 82 82 SW 5 7 30.29 1026 10 16.0934 0 0
9:58 am 09:58 Clear 31 -0.3 27 -2.6 85 85 SW 6 9 30.28 1025 10 16.0934 0 0
10:58 am 10:58 Clear 32 0 27 -2.8 82 82 SSW 5 7 30.3 1026 10 16.0934 0 0
11:58 am 11:58 Clear 29 -1.7 26 -3.5 88 88 SW 5 7 30.32 1027 10 16.0934 0 0
12:58 pm 12:58 Sunny 29 -1.6 26 -3.3 88 88 SSW 8 13 30.35 1028 10 16.0934 0 0
1:58 pm 13:58 Sunny 36 2 29 -1.4 78 78 SSW 8 13 30.36 1028 10 16.0934 0 0
2:58 pm 14:58 Sunny 43 6.3 33 0.3 66 66 SW 6 9 30.33 1027 10 16.0934 0 0
3:58 pm 15:58 Sunny 50 9.8 27 -2.8 41 41 S 13 20 30.3 1026 10 16.0934 0 0
4:58 pm 16:58 Sunny 55 12.5 24 -4.4 31 31 SSW 20 31 30.29 1026 10 16.0934 0 0
5:58 pm 17:58 Sunny 58 14.3 26 -3.1 30 30 S 18 30 30.27 1025 10 16.0934 0 0
6:59 pm 18:59 Sunny 61 16 31 -0.4 33 33 S 16 26 30.23 1024 10 16.0934 0 0
7:59 pm 19:59 Sunny 64 18 31 -0.4 29 29 S 21 33 30.17 1022 10 16.0934 0 0
8:58 pm 20:58 Sunny 66 18.7 33 0.6 30 30 S 22 35 30.14 1021 10 16.0934 0 0
9:58 pm 21:58 Sunny 67 19.4 31 -0.4 27 27 S 21 33 30.14 1021 10 16.0934 0 0
10:58 pm 22:58 Sunny 66 18.9 31 -0.5 27 27 S 22 35 30.12 1020 10 16.0934 0 0
11:58 pm 23:58 Sunny 63 17.2 30 -1 29 29 S 21 33 30.14 1021 10 16.0934 0 0

Powered by AerisWeather